QPF
0.01 0.01 0.01 0.02 0.01 0.01 0.02 0.01 0.02 0.01 0.01 0.01 0.00 0.00 0.00 0.01 0.00 0.01 0.01 0.01 0.01 0.00 0.00 0.00 0.00 0.00 0.00 0.00 0.00 0.00 0.00 0.00 0.00 0.00 0.00 0.00 0.00 0.00 0.00 0.00 0.00 0.01 0.01 0.00
0.01 0.01 0.01 0.01 0.01 0.01 0.01 0.01 0.01 0.01 0.01 0.00 0.00 0.00 0.00 0.01 0.01 0.01 0.01 0.01 0.01 0.01 0.00 0.01 0.01 0.01 0.01 0.01 0.01 0.00 0.00 0.00 0.00 0.00 0.00 0.00 0.00 0.00 0.00 0.00 0.00 0.01 0.01 0.01
0.02 0.01 0.01 0.02 0.02 0.02 0.01 0.01 0.01 0.01 0.01 0.01 0.00 0.00 0.00 0.01 0.01 0.01 0.01 0.01 0.01 0.01 0.01 0.01 0.01 0.01 0.01 0.01 0.01 0.01 0.01 0.01 0.00 0.00 0.00 0.00 0.00 0.00 0.00 0.00 0.00 0.00 0.01 0.01
0.02 0.02 0.03 0.02 0.01 0.02 0.02 0.02 0.02 0.02 0.01 0.01 0.01 0.00 0.01 0.01 0.01 0.02 0.01 0.01 0.01 0.01 0.00 0.00 0.00 0.01 0.01 0.02 0.02 0.01 0.01 0.02 0.02 0.01 0.00 0.00 0.00 0.00 0.00 0.00 0.00 0.00 0.00 0.01
0.02 0.02 0.02 0.01 0.02 0.02 0.02 0.02 0.02 0.02 0.01 0.02 0.01 0.01 0.01 0.02 0.02 0.02 0.02 0.01 0.01 0.00 0.00 0.00 0.00 0.00 0.01 0.02 0.02 0.02 0.02 0.02 0.02 0.02 0.02 0.01 0.00 0.00 0.00 0.00 0.00 0.00 0.00 0.00
0.02 0.02 0.02 0.01 0.01 0.01 0.01 0.02 0.01 0.02 0.02 0.02 0.02 0.02 0.02 0.02 0.02 0.02 0.02 0.01 0.01 0.00 0.00 0.00 0.00 0.00 0.00 0.01 0.02 0.02 0.02 0.02 0.02 0.02 0.02 0.01 0.01 0.01 0.00 0.00 0.00 0.00 0.00 0.00
0.02 0.01 0.01 0.01 0.01 0.01 0.03 0.04 0.03 0.02 0.02 0.02 0.03 0.03 0.03 0.02 0.02 0.02 0.02 0.02 0.01 0.01 0.00 0.00 0.00 0.00 0.00 0.01 0.02 0.02 0.01 0.02 0.02 0.02 0.01 0.01 0.01 0.01 0.01 0.00 0.00 0.00 0.00 0.00
0.02 0.02 0.02 0.01 0.02 0.03 0.04 0.03 0.03 0.03 0.03 0.03 0.03 0.03 0.03 0.03 0.03 0.03 0.02 0.02 0.02 0.01 0.01 0.01 0.01 0.00 0.00 0.01 0.02 0.01 0.01 0.01 0.02 0.02 0.01 0.01 0.01 0.01 0.01 0.01 0.00 0.00 0.00 0.00
0.02 0.02 0.02 0.03 0.03 0.03 0.03 0.02 0.02 0.02 0.03 0.03 0.04 0.04 0.03 0.03 0.02 0.03 0.02 0.02 0.02 0.01 0.01 0.01 0.01 0.01 0.00 0.00 0.01 0.01 0.00 0.01 0.01 0.02 0.02 0.01 0.01 0.01 0.01 0.01 0.01 0.01 0.00 0.00
0.02 0.02 0.02 0.02 0.02 0.02 0.02 0.01 0.01 0.01 0.02 0.02 0.02 0.03 0.03 0.02 0.02 0.02 0.02 0.02 0.02 0.01 0.02 0.02 0.01 0.01 0.01 0.00 0.00 0.00 0.00 0.00 0.01 0.01 0.01 0.01 0.01 0.01 0.01 0.01 0.01 0.01 0.00 0.00
0.01 0.01 0.01 0.01 0.01 0.01 0.01 0.01 0.01 0.01 0.01 0.01 0.01 0.02 0.02 0.02 0.02 0.02 0.02 0.02 0.01 0.01 0.02 0.02 0.01 0.01 0.01 0.00 0.00 0.00 0.00 0.00 0.00 0.00 0.01 0.01 0.01 0.01 0.00 0.00 0.01 0.01 0.01 0.00
0.02 0.02 0.02 0.02 0.02 0.02 0.01 0.01 0.01 0.01 0.01 0.01 0.01 0.01 0.01 0.01 0.01 0.02 0.02 0.02 0.01 0.01 0.01 0.02 0.01 0.01 0.01 0.00 0.00 0.00 0.00 0.00 0.00 0.00 0.00 0.01 0.01 0.01 0.00 0.00 0.00 0.01 0.01 0.01
0.02 0.02 0.02 0.02 0.02 0.02 0.01 0.01 0.01 0.01 0.01 0.01 0.01 0.01 0.01 0.01 0.01 0.01 0.01 0.02 0.01 0.01 0.01 0.02 0.02 0.02 0.02 0.01 0.00 0.00 0.00 0.00 0.00 0.00 0.00 0.00 0.00 0.00 0.00 0.00 0.00 0.00 0.01 0.01
0.02 0.02 0.02 0.01 0.01 0.01 0.01 0.01 0.01 0.01 0.01 0.01 0.01 0.01 0.01 0.01 0.01 0.01 0.01 0.01 0.02 0.02 0.02 0.02 0.02 0.02 0.02 0.02 0.01 0.00 0.00 0.00 0.00 0.00 0.00 0.00 0.00 0.00 0.00 0.00 0.01 0.01 0.01 0.01
0.01 0.01 0.01 0.01 0.01 0.01 0.01 0.01 0.01 0.01 0.01 0.01 0.01 0.01 0.01 0.01 0.01 0.01 0.01 0.01 0.01 0.01 0.02 0.02 0.02 0.02 0.02 0.02 0.02 0.01 0.01 0.00 0.00 0.00 0.00 0.00 0.00 0.01 0.01 0.01 0.01 0.01 0.01 0.00
0.01 0.01 0.01 0.01 0.02 0.01 0.01 0.01 0.01 0.01 0.01 0.01 0.02 0.02 0.01 0.01 0.01 0.01 0.01 0.01 0.01 0.01 0.02 0.02 0.02 0.02 0.02 0.02 0.02 0.02 0.02 0.01 0.01 0.01 0.01 0.01 0.01 0.01 0.01 0.01 0.01 0.01 0.01 0.01
0.01 0.01 0.01 0.01 0.01 0.01 0.01 0.01 0.01 0.01 0.01 0.01 0.02 0.02 0.01 0.01 0.01 0.01 0.01 0.01 0.01 0.01 0.02 0.02 0.02 0.02 0.02 0.02 0.02 0.02 0.02 0.02 0.02 0.01 0.01 0.01 0.01 0.01 0.01 0.01 0.01 0.01 0.01 0.01
0.01 0.01 0.01 0.01 0.01 0.02 0.02 0.02 0.01 0.01 0.02 0.02 0.02 0.02 0.01 0.01 0.01 0.01 0.01 0.01 0.01 0.01 0.01 0.02 0.02 0.02 0.02 0.02 0.02 0.02 0.02 0.02 0.02 0.01 0.01 0.01 0.01 0.01 0.01 0.01 0.01 0.01 0.01 0.01
0.01 0.01 0.01 0.01 0.01 0.01 0.02 0.02 0.02 0.02 0.02 0.02 0.02 0.02 0.02 0.01 0.01 0.01 0.01 0.01 0.01 0.01 0.01 0.02 0.02 0.02 0.02 0.02 0.02 0.02 0.02 0.01 0.01 0.01 0.01 0.01 0.01 0.01 0.01 0.01 0.01 0.01 0.01 0.01
0.01 0.01 0.01 0.01 0.01 0.01 0.01 0.02 0.02 0.02 0.02 0.02 0.02 0.02 0.02 0.02 0.02 0.01 0.01 0.01 0.01 0.01 0.01 0.02 0.02 0.02 0.02 0.02 0.02 0.02 0.02 0.02 0.01 0.01 0.01 0.01 0.01 0.01 0.01 0.01 0.01 0.01 0.01 0.01
0.01 0.01 0.01 0.01 0.01 0.01 0.01 0.02 0.02 0.02 0.02 0.02 0.02 0.02 0.02 0.02 0.02 0.02 0.02 0.02 0.02 0.02 0.02 0.02 0.02 0.02 0.02 0.02 0.02 0.02 0.02 0.02 0.02 0.01 0.01 0.01 0.01 0.01 0.01 0.01 0.01 0.01 0.01 0.01
0.02 0.02 0.02 0.02 0.02 0.01 0.02 0.02 0.02 0.02 0.02 0.02 0.02 0.02 0.02 0.02 0.02 0.02 0.02 0.02 0.02 0.02 0.02 0.02 0.02 0.03 0.03 0.02 0.02 0.02 0.02 0.02 0.02 0.02 0.01 0.02 0.02 0.01 0.01 0.01 0.01 0.01 0.01 0.01
0.02 0.02 0.02 0.02 0.02 0.02 0.02 0.02 0.02 0.02 0.02 0.02 0.02 0.02 0.02 0.03 0.03 0.02 0.02 0.02 0.02 0.03 0.03 0.03 0.03 0.03 0.03 0.03 0.02 0.02 0.02 0.02 0.02 0.02 0.02 0.02 0.01 0.01 0.01 0.01 0.01 0.01 0.01 0.01
0.02 0.02 0.02 0.02 0.02 0.02 0.02 0.02 0.02 0.02 0.02 0.02 0.02 0.02 0.03 0.03 0.03 0.03 0.02 0.02 0.03 0.03 0.02 0.03 0.03 0.03 0.02 0.02 0.02 0.02 0.02 0.01 0.01 0.01 0.01 0.01 0.01 0.01 0.01 0.01 0.01 0.01 0.01 0.01
0.01 0.01 0.01 0.01 0.01 0.01 0.01 0.01 0.01 0.01 0.01 0.02 0.02 0.02 0.03 0.03 0.03 0.03 0.02 0.02 0.02 0.02 0.02 0.02 0.02 0.02 0.01 0.01 0.01 0.01 0.01 0.01 0.01 0.01 0.01 0.01 0.01 0.01 0.01 0.01 0.01 0.01 0.01 0.01
0.01 0.01 0.01 0.01 0.01 0.01 0.01 0.01 0.01 0.01 0.02 0.02 0.02 0.02 0.02 0.03 0.03 0.02 0.02 0.02 0.01 0.01 0.01 0.01 0.01 0.01 0.01 0.01 0.01 0.01 0.01 0.01 0.01 0.01 0.01 0.01 0.01 0.01 0.01 0.01 0.01 0.01 0.01 0.01
0.01 0.01 0.01 0.01 0.01 0.01 0.01 0.01 0.02 0.02 0.02 0.02 0.02 0.02 0.02 0.02 0.02 0.02 0.02 0.02 0.01 0.01 0.01 0.01 0.01 0.01 0.01 0.01 0.01 0.01 0.01 0.01 0.01 0.01 0.01 0.01 0.01 0.01 0.01 0.01 0.01 0.01 0.01 0.01
MSLP
1023.07 1023.35 1023.55 1023.60 1023.44 1023.02 1022.33 1021.38 1020.23 1018.97 1017.73 1016.61 1015.76 1015.25 1015.12 1015.38 1015.98 1016.85 1017.88 1018.98 1020.04 1021.00 1021.82 1022.48 1023.00 1023.41 1023.73 1024.00 1024.23 1024.43 1024.59 1024.70 1024.75 1024.73 1024.63 1024.48 1024.30 1024.10 1023.90 1023.72 1023.55 1023.38 1023.20 1022.98
1022.83 1023.01 1023.11 1023.09 1022.87 1022.43 1021.74 1020.81 1019.70 1018.49 1017.28 1016.18 1015.32 1014.76 1014.56 1014.73 1015.22 1015.99 1016.94 1017.97 1019.01 1019.98 1020.85 1021.60 1022.22 1022.74 1023.19 1023.57 1023.90 1024.18 1024.39 1024.54 1024.62 1024.60 1024.52 1024.36 1024.17 1023.96 1023.75 1023.56 1023.38 1023.20 1023.02 1022.81
1022.46 1022.50 1022.50 1022.39 1022.13 1021.67 1021.01 1020.13 1019.10 1017.97 1016.84 1015.80 1014.97 1014.40 1014.16 1014.25 1014.65 1015.31 1016.16 1017.11 1018.10 1019.06 1019.95 1020.75 1021.45 1022.07 1022.61 1023.09 1023.51 1023.86 1024.14 1024.34 1024.45 1024.47 1024.39 1024.25 1024.06 1023.85 1023.62 1023.41 1023.22 1023.02 1022.83 1022.61
1021.92 1021.85 1021.74 1021.56 1021.26 1020.81 1020.19 1019.40 1018.47 1017.47 1016.46 1015.53 1014.77 1014.24 1013.99 1014.04 1014.36 1014.92 1015.66 1016.52 1017.44 1018.35 1019.22 1020.03 1020.77 1021.44 1022.04 1022.59 1023.07 1023.49 1023.83 1024.08 1024.23 1024.29 1024.25 1024.14 1023.96 1023.75 1023.53 1023.31 1023.09 1022.88 1022.66 1022.42
1021.26 1021.09 1020.91 1020.67 1020.36 1019.93 1019.37 1018.69 1017.90 1017.05 1016.20 1015.41 1014.76 1014.31 1014.09 1014.11 1014.38 1014.86 1015.51 1016.26 1017.08 1017.92 1018.73 1019.51 1020.23 1020.91 1021.54 1022.11 1022.63 1023.08 1023.46 1023.75 1023.95 1024.06 1024.07 1023.99 1023.86 1023.67 1023.46 1023.23 1023.00 1022.76 1022.51 1022.25
1020.57 1020.34 1020.11 1019.85 1019.54 1019.15 1018.67 1018.10 1017.46 1016.78 1016.09 1015.46 1014.94 1014.58 1014.42 1014.46 1014.69 1015.11 1015.66 1016.32 1017.04 1017.78 1018.51 1019.21 1019.89 1020.52 1021.12 1021.68 1022.20 1022.66 1023.06 1023.38 1023.62 1023.78 1023.84 1023.82 1023.73 1023.58 1023.39 1023.17 1022.93 1022.68 1022.40 1022.11
1019.97 1019.72 1019.47 1019.21 1018.92 1018.58 1018.18 1017.72 1017.22 1016.68 1016.15 1015.67 1015.28 1015.02 1014.92 1014.98 1015.20 1015.57 1016.05 1016.62 1017.24 1017.88 1018.51 1019.13 1019.73 1020.29 1020.83 1021.34 1021.82 1022.27 1022.66 1023.00 1023.27 1023.46 1023.57 1023.61 1023.57 1023.47 1023.31 1023.11 1022.88 1022.61 1022.31 1021.99
1019.59 1019.35 1019.12 1018.87 1018.61 1018.31 1017.98 1017.61 1017.20 1016.78 1016.37 1016.01 1015.73 1015.55 1015.50 1015.58 1015.80 1016.13 1016.56 1017.05 1017.59 1018.14 1018.68 1019.21 1019.72 1020.20 1020.67 1021.11 1021.54 1021.94 1022.30 1022.63 1022.91 1023.13 1023.28 1023.37 1023.38 1023.33 1023.22 1023.04 1022.82 1022.55 1022.24 1021.90
1019.52 1019.33 1019.12 1018.90 1018.66 1018.40 1018.10 1017.77 1017.42 1017.07 1016.73 1016.44 1016.22 1016.09 1016.07 1016.16 1016.37 1016.67 1017.05 1017.49 1017.96 1018.44 1018.91 1019.37 1019.80 1020.21 1020.60 1020.97 1021.33 1021.68 1022.01 1022.31 1022.59 1022.82 1023.00 1023.12 1023.18 1023.17 1023.09 1022.95 1022.75 1022.49 1022.18 1021.83
1019.82 1019.68 1019.52 1019.32 1019.09 1018.82 1018.53 1018.20 1017.86 1017.51 1017.19 1016.91 1016.70 1016.58 1016.56 1016.64 1016.82 1017.09 1017.43 1017.83 1018.26 1018.69 1019.11 1019.52 1019.90 1020.25 1020.59 1020.90 1021.21 1021.50 1021.79 1022.06 1022.32 1022.54 1022.74 1022.88 1022.97 1022.99 1022.95 1022.83 1022.65 1022.41 1022.11 1021.76
1020.49 1020.41 1020.27 1020.08 1019.83 1019.54 1019.21 1018.84 1018.46 1018.08 1017.72 1017.40 1017.16 1016.99 1016.93 1016.97 1017.11 1017.34 1017.65 1018.01 1018.41 1018.81 1019.21 1019.59 1019.95 1020.28 1020.58 1020.86 1021.12 1021.38 1021.63 1021.87 1022.10 1022.31 1022.50 1022.65 1022.76 1022.80 1022.79 1022.70 1022.54 1022.32 1022.03 1021.70
1021.45 1021.40 1021.28 1021.07 1020.79 1020.45 1020.05 1019.61 1019.16 1018.70 1018.27 1017.88 1017.56 1017.33 1017.20 1017.17 1017.25 1017.42 1017.68 1018.01 1018.38 1018.77 1019.16 1019.54 1019.90 1020.22 1020.52 1020.79 1021.04 1021.27 1021.50 1021.72 1021.93 1022.13 1022.30 1022.45 1022.56 1022.62 1022.62 1022.55 1022.42 1022.22 1021.96 1021.65
1022.57 1022.53 1022.39 1022.14 1021.81 1021.40 1020.93 1020.41 1019.88 1019.34 1018.82 1018.34 1017.94 1017.62 1017.40 1017.29 1017.29 1017.39 1017.59 1017.87 1018.20 1018.58 1018.96 1019.35 1019.72 1020.06 1020.37 1020.66 1020.91 1021.15 1021.37 1021.58 1021.78 1021.96 1022.13 1022.27 1022.38 1022.45 1022.46 1022.41 1022.30 1022.13 1021.89 1021.61
1023.68 1023.62 1023.44 1023.15 1022.75 1022.27 1021.73 1021.14 1020.53 1019.92 1019.33 1018.78 1018.29 1017.89 1017.58 1017.37 1017.28 1017.30 1017.42 1017.64 1017.93 1018.27 1018.64 1019.03 1019.41 1019.78 1020.12 1020.43 1020.71 1020.97 1021.20 1021.42 1021.62 1021.80 1021.97 1022.11 1022.22 1022.29 1022.31 1022.28 1022.19 1022.04 1021.84 1021.58
1024.65 1024.54 1024.30 1023.95 1023.49 1022.95 1022.36 1021.72 1021.06 1020.41 1019.77 1019.17 1018.62 1018.14 1017.76 1017.46 1017.28 1017.21 1017.24 1017.38 1017.60 1017.90 1018.24 1018.62 1019.00 1019.39 1019.76 1020.10 1020.42 1020.71 1020.97 1021.21 1021.43 1021.62 1021.79 1021.94 1022.06 1022.13 1022.17 1022.16 1022.09 1021.97 1021.80 1021.58
1025.35 1025.18 1024.87 1024.45 1023.94 1023.36 1022.74 1022.08 1021.42 1020.75 1020.10 1019.48 1018.90 1018.38 1017.93 1017.57 1017.30 1017.13 1017.07 1017.12 1017.26 1017.49 1017.79 1018.14 1018.52 1018.91 1019.31 1019.69 1020.05 1020.38 1020.68 1020.96 1021.20 1021.42 1021.61 1021.77 1021.90 1021.99 1022.05 1022.06 1022.01 1021.92 1021.78 1021.58
1025.73 1025.48 1025.10 1024.63 1024.08 1023.48 1022.85 1022.21 1021.56 1020.91 1020.29 1019.68 1019.10 1018.56 1018.07 1017.65 1017.31 1017.06 1016.90 1016.85 1016.91 1017.07 1017.31 1017.62 1017.98 1018.38 1018.80 1019.21 1019.61 1019.99 1020.34 1020.66 1020.94 1021.20 1021.42 1021.60 1021.75 1021.87 1021.94 1021.97 1021.96 1021.89 1021.78 1021.61
1025.79 1025.46 1025.03 1024.51 1023.93 1023.33 1022.71 1022.10 1021.49 1020.89 1020.30 1019.72 1019.16 1018.62 1018.12 1017.66 1017.25 1016.92 1016.69 1016.55 1016.53 1016.61 1016.79 1017.06 1017.41 1017.81 1018.24 1018.69 1019.13 1019.56 1019.96 1020.33 1020.67 1020.96 1021.22 1021.44 1021.62 1021.76 1021.86 1021.91 1021.92 1021.88 1021.79 1021.65
1025.60 1025.20 1024.71 1024.16 1023.57 1022.97 1022.37 1021.78 1021.22 1020.66 1020.12 1019.58 1019.04 1018.51 1017.99 1017.50 1017.05 1016.66 1016.36 1016.15 1016.06 1016.09 1016.22 1016.46 1016.80 1017.20 1017.65 1018.14 1018.63 1019.11 1019.57 1019.99 1020.38 1020.72 1021.02 1021.28 1021.49 1021.66 1021.79 1021.87 1021.90 1021.89 1021.82 1021.70
1025.26 1024.80 1024.27 1023.68 1023.08 1022.48 1021.90 1021.33 1020.79 1020.27 1019.75 1019.23 1018.70 1018.16 1017.63 1017.11 1016.63 1016.20 1015.85 1015.60 1015.47 1015.46 1015.57 1015.80 1016.14 1016.56 1017.05 1017.58 1018.12 1018.66 1019.18 1019.66 1020.10 1020.50 1020.84 1021.14 1021.39 1021.59 1021.74 1021.85 1021.91 1021.91 1021.86 1021.75
1024.87 1024.36 1023.79 1023.18 1022.56 1021.95 1021.36 1020.80 1020.26 1019.73 1019.20 1018.67 1018.13 1017.58 1017.02 1016.48 1015.97 1015.51 1015.14 1014.86 1014.72 1014.70 1014.82 1015.07 1015.43 1015.89 1016.42 1017.01 1017.61 1018.21 1018.79 1019.34 1019.84 1020.29 1020.68 1021.02 1021.30 1021.54 1021.72 1021.85 1021.92 1021.95 1021.91 1021.81
1024.51 1023.95 1023.34 1022.71 1022.06 1021.42 1020.81 1020.22 1019.64 1019.07 1018.51 1017.94 1017.35 1016.76 1016.17 1015.60 1015.06 1014.59 1014.21 1013.94 1013.81 1013.82 1013.98 1014.27 1014.68 1015.20 1015.80 1016.45 1017.12 1017.79 1018.43 1019.04 1019.60 1020.10 1020.54 1020.92 1021.24 1021.50 1021.71 1021.86 1021.95 1021.98 1021.95 1021.86
1024.18 1023.59 1022.95 1022.27 1021.59 1020.91 1020.24 1019.59 1018.95 1018.32 1017.68 1017.04 1016.40 1015.75 1015.11 1014.51 1013.96 1013.49 1013.13 1012.89 1012.80 1012.86 1013.08 1013.44 1013.93 1014.52 1015.20 1015.92 1016.66 1017.40 1018.12 1018.78 1019.40 1019.95 1020.44 1020.85 1021.20 1021.49 1021.72 1021.88 1021.98 1022.02 1021.99 1021.89
1023.88 1023.24 1022.55 1021.83 1021.10 1020.37 1019.64 1018.91 1018.19 1017.47 1016.75 1016.03 1015.31 1014.61 1013.93 1013.30 1012.75 1012.30 1011.97 1011.79 1011.76 1011.90 1012.20 1012.65 1013.22 1013.91 1014.66 1015.47 1016.28 1017.09 1017.87 1018.59 1019.26 1019.85 1020.38 1020.82 1021.20 1021.51 1021.75 1021.92 1022.02 1022.05 1022.01 1021.90
1023.53 1022.84 1022.10 1021.33 1020.54 1019.74 1018.94 1018.13 1017.33 1016.52 1015.72 1014.92 1014.14 1013.39 1012.69 1012.06 1011.53 1011.12 1010.85 1010.74 1010.81 1011.04 1011.43 1011.98 1012.65 1013.42 1014.26 1015.14 1016.02 1016.89 1017.72 1018.49 1019.20 1019.83 1020.38 1020.85 1021.24 1021.56 1021.80 1021.96 1022.05 1022.07 1022.00 1021.87
1023.05 1022.29 1021.49 1020.66 1019.82 1018.95 1018.09 1017.22 1016.34 1015.47 1014.61 1013.77 1012.95 1012.19 1011.50 1010.90 1010.42 1010.07 1009.89 1009.87 1010.04 1010.38 1010.88 1011.52 1012.29 1013.14 1014.05 1014.99 1015.94 1016.85 1017.71 1018.52 1019.25 1019.90 1020.46 1020.94 1021.33 1021.64 1021.87 1022.01 1022.08 1022.06 1021.96 1021.79
1022.39 1021.55 1020.68 1019.80 1018.89 1017.98 1017.07 1016.15 1015.24 1014.34 1013.46 1012.60 1011.80 1011.07 1010.43 1009.90 1009.50 1009.26 1009.18 1009.29 1009.57 1010.02 1010.63 1011.37 1012.21 1013.14 1014.10 1015.09 1016.06 1017.00 1017.88 1018.69 1019.43 1020.07 1020.63 1021.09 1021.46 1021.75 1021.94 1022.05 1022.08 1022.02 1021.88 1021.67
Thickness
5427 5433 5436 5439 5442 5445 5450 5461 5469 5478 5479 5483 5483 5484 5485 5486 5488 5490 5492 5495 5498 5502 5505 5508 5510 5512 5514 5516 5518 5520 5523 5524 5526 5526 5526 5525 5524 5523 5522 5521 5520 5519 5517 5515
5418 5426 5430 5433 5440 5443 5446 5453 5458 5464 5470 5473 5472 5473 5474 5476 5477 5480 5483 5485 5488 5491 5494 5497 5499 5502 5504 5506 5508 5510 5513 5514 5515 5516 5516 5516 5515 5514 5513 5512 5511 5510 5509 5507
5421 5419 5423 5431 5436 5438 5441 5444 5450 5457 5463 5460 5460 5462 5465 5466 5468 5471 5474 5476 5478 5481 5483 5486 5489 5491 5494 5496 5497 5500 5502 5504 5505 5506 5507 5507 5506 5506 5505 5504 5503 5501 5500 5498
5410 5414 5417 5431 5427 5430 5432 5434 5437 5442 5447 5449 5450 5452 5454 5456 5459 5462 5464 5466 5469 5471 5473 5476 5479 5481 5484 5486 5488 5490 5492 5493 5495 5496 5497 5497 5497 5497 5496 5495 5494 5493 5491 5490
5405 5414 5422 5421 5417 5415 5420 5424 5427 5430 5434 5435 5436 5442 5447 5447 5448 5451 5454 5457 5459 5462 5464 5466 5469 5472 5474 5476 5478 5480 5482 5484 5485 5486 5487 5487 5488 5488 5487 5486 5485 5484 5482 5481
5396 5408 5415 5418 5409 5408 5414 5422 5420 5421 5423 5424 5428 5442 5447 5439 5438 5441 5444 5446 5449 5452 5454 5457 5459 5462 5465 5468 5469 5471 5472 5474 5475 5476 5477 5478 5478 5478 5477 5476 5476 5474 5473 5472
5390 5399 5408 5399 5395 5403 5413 5416 5410 5412 5414 5416 5421 5428 5426 5426 5428 5430 5433 5436 5439 5442 5445 5448 5450 5453 5456 5458 5460 5460 5461 5463 5465 5466 5467 5467 5467 5468 5467 5467 5466 5465 5464 5462
5383 5391 5397 5385 5389 5395 5397 5395 5399 5402 5405 5406 5408 5410 5412 5415 5417 5419 5422 5425 5429 5433 5436 5438 5441 5444 5447 5448 5449 5450 5451 5453 5454 5455 5456 5456 5457 5457 5457 5457 5456 5455 5455 5453
5374 5382 5378 5375 5377 5379 5380 5385 5389 5392 5393 5393 5395 5399 5401 5403 5406 5408 5411 5415 5418 5422 5425 5428 5430 5433 5436 5437 5438 5440 5441 5442 5443 5444 5445 5446 5447 5447 5447 5447 5447 5446 5446 5444
5362 5369 5368 5368 5369 5370 5372 5375 5378 5380 5381 5384 5386 5389 5391 5393 5395 5398 5401 5404 5408 5412 5415 5418 5420 5423 5425 5427 5429 5430 5432 5432 5433 5434 5434 5435 5435 5436 5437 5437 5437 5436 5435 5434
5356 5359 5360 5363 5361 5361 5362 5366 5369 5371 5372 5375 5378 5380 5381 5383 5386 5388 5391 5394 5398 5401 5405 5408 5410 5413 5415 5417 5419 5421 5422 5423 5423 5423 5424 5424 5424 5424 5425 5425 5426 5425 5425 5424
5356 5351 5350 5354 5353 5352 5354 5357 5359 5361 5364 5366 5368 5370 5372 5374 5376 5378 5381 5384 5388 5391 5394 5397 5399 5402 5404 5406 5409 5411 5412 5413 5413 5413 5414 5414 5414 5413 5411 5412 5412 5412 5412 5412
5336 5337 5338 5340 5343 5344 5346 5348 5350 5353 5355 5357 5358 5360 5362 5364 5366 5368 5371 5375 5378 5380 5383 5386 5388 5391 5393 5396 5398 5400 5402 5402 5403 5403 5403 5403 5403 5403 5403 5402 5401 5401 5401 5401
5327 5329 5333 5334 5335 5336 5338 5339 5342 5344 5345 5347 5349 5351 5352 5354 5357 5359 5361 5364 5367 5370 5372 5375 5378 5380 5382 5385 5388 5390 5391 5391 5392 5393 5393 5393 5393 5393 5393 5393 5393 5392 5391 5391
5321 5322 5324 5325 5326 5327 5329 5331 5334 5335 5336 5338 5340 5341 5343 5346 5347 5349 5351 5353 5357 5359 5362 5364 5367 5370 5372 5374 5377 5379 5381 5382 5382 5383 5383 5383 5383 5383 5383 5383 5384 5383 5382 5382
5313 5314 5316 5317 5319 5320 5321 5323 5325 5326 5327 5329 5330 5332 5333 5335 5337 5339 5341 5344 5348 5350 5352 5354 5357 5359 5362 5365 5367 5369 5371 5371 5372 5373 5373 5374 5374 5375 5375 5375 5375 5374 5374 5374
5306 5309 5310 5311 5312 5313 5313 5315 5316 5317 5318 5319 5320 5321 5323 5326 5328 5331 5333 5335 5338 5340 5342 5345 5347 5350 5352 5355 5358 5360 5361 5361 5362 5363 5364 5365 5366 5366 5366 5366 5366 5366 5366 5365
5299 5301 5302 5303 5305 5305 5306 5307 5308 5309 5310 5311 5312 5313 5315 5318 5320 5322 5324 5327 5330 5332 5334 5336 5339 5341 5344 5346 5348 5351 5352 5353 5354 5355 5355 5356 5357 5357 5357 5358 5358 5358 5358 5358
5292 5294 5294 5296 5297 5298 5299 5300 5300 5301 5302 5303 5305 5306 5307 5308 5310 5313 5316 5319 5322 5325 5327 5329 5331 5334 5336 5338 5340 5342 5344 5345 5346 5346 5347 5348 5348 5349 5349 5350 5350 5351 5351 5351
5286 5287 5287 5288 5289 5290 5291 5292 5292 5293 5294 5295 5297 5299 5300 5302 5303 5306 5309 5312 5314 5317 5318 5321 5323 5326 5328 5329 5332 5334 5336 5337 5338 5339 5340 5340 5341 5341 5341 5342 5342 5343 5344 5344
5279 5279 5280 5280 5281 5282 5283 5284 5285 5286 5287 5289 5290 5292 5294 5295 5297 5299 5303 5306 5307 5309 5311 5314 5316 5318 5320 5322 5324 5327 5328 5329 5331 5332 5333 5333 5334 5334 5334 5335 5335 5336 5336 5337
5271 5271 5272 5272 5273 5274 5275 5275 5276 5278 5279 5281 5283 5284 5287 5289 5291 5293 5295 5298 5300 5303 5305 5307 5309 5312 5313 5316 5318 5320 5321 5322 5323 5324 5325 5326 5326 5327 5327 5328 5328 5329 5329 5330
5264 5264 5264 5264 5265 5266 5266 5267 5269 5270 5272 5274 5275 5278 5280 5282 5285 5288 5290 5292 5294 5296 5299 5301 5303 5305 5307 5309 5311 5313 5314 5315 5316 5317 5318 5319 5319 5320 5320 5320 5321 5322 5323 5324
5257 5257 5257 5257 5257 5258 5260 5261 5262 5263 5265 5266 5269 5270 5273 5276 5279 5280 5283 5285 5288 5290 5292 5294 5297 5299 5300 5301 5303 5305 5307 5308 5309 5310 5311 5311 5312 5313 5313 5314 5315 5315 5316 5317
5250 5250 5250 5250 5252 5254 5255 5255 5256 5258 5260 5262 5264 5265 5267 5270 5273 5275 5277 5280 5282 5284 5286 5288 5290 5292 5293 5295 5296 5298 5299 5301 5301 5302 5303 5304 5305 5306 5307 5308 5308 5309 5310 5311
5245 5245 5246 5245 5246 5248 5249 5251 5253 5255 5256 5258 5259 5261 5262 5264 5267 5269 5272 5274 5276 5278 5280 5281 5283 5285 5287 5288 5290 5291 5292 5293 5294 5295 5296 5297 5299 5300 5301 5302 5302 5304 5305 5306
5239 5239 5240 5241 5242 5243 5245 5246 5248 5250 5251 5253 5254 5256 5258 5259 5261 5264 5266 5268 5270 5271 5273 5275 5277 5279 5280 5282 5283 5284 5285 5286 5288 5289 5291 5292 5293 5294 5296 5297 5298 5299 5300 5302